Weather History for St. Paul Lake Elmo, MN

Change the Weather History Date:

Friday, August 2, 2013

  Actual Average (KSTP) Record (KSTP)
Temperature  
Mean Temperature 66 °F -  
Max Temperature 77 °F 80 °F 93 °F (2005)
Min Temperature 55 °F 61 °F 55 °F (2002)
Cooling Degree Days 1    
Growing Degree Days 16 (Base 50)    
Moisture  
Dew Point 54 °F    
Average Humidity 68    
Maximum Humidity 100    
Minimum Humidity 41    
Precipitation  
Precipitation 0.00 in - - ()
Sea Level Pressure  
Sea Level Pressure 29.95 in    
Wind  
Wind Speed 3 mph (NNW)    
Max Wind Speed 10 mph    
Max Gust Speed 18 mph    
Visibility 10 miles    
Events      
Averages and records for this station are not official NWS values.
T = Trace of Precipitation, MM = Missing Value Source: NWS Daily Summary

Daily Weather History Graph

Daily Weather History Graph

Search for Another Location

Airport:

Trip Planner

Search our weather history database for the weather conditions in past years. The results will help you decide how hot, cold, wet, or windy it might be!

Date:

Astronomy

Aug. 02, 2013 Rise Set
Actual Time 5:58 AM CDT 8:36 PM CDT
Civil Twilight 5:24 AM CDT 9:09 PM CDT
Nautical Twilight 4:42 AM CDT 9:51 PM CDT
Astronomical Twilight 3:53 AM CDT 10:40 PM CDT
Moon 2:17 AM CDT (8/2) 5:36 PM CDT (8/2)
Length of Visible Light 15h 45m
Length of Day
14h 38m
Waning Crescent, 15% of the Moon is Illuminated
Aug 2
Waning Crescent
Aug 6
New
Aug 14
First Quarter
Aug 20
Full
Aug 28
Last Quarter

Hourly Weather History & Observations

Time (CDT) Temp. Dew Point Humidity Pressure Visibility Wind Dir Wind Speed Gust Speed Precip Events Conditions
12:05 AM 60.8 °F 59.0 °F 94% 29.89 in 10.0 mi Calm Calm - N/A   Scattered Clouds
12:25 AM 60.8 °F 59.0 °F 94% 29.88 in 10.0 mi Calm Calm - N/A   Scattered Clouds
12:45 AM 59.0 °F 57.2 °F 94% 29.88 in 10.0 mi Calm Calm - N/A   Clear
1:05 AM 59.0 °F 57.2 °F 94% 29.87 in 10.0 mi Calm Calm - N/A   Clear
1:25 AM 59.0 °F 57.2 °F 94% 29.87 in 10.0 mi Calm Calm - N/A   Clear
1:45 AM 57.2 °F 55.4 °F 94% 29.87 in 10.0 mi Calm Calm - N/A   Clear
2:05 AM 57.2 °F 55.4 °F 94% 29.87 in 10.0 mi Calm Calm - N/A   Clear
2:25 AM 55.4 °F 53.6 °F 94% 29.87 in 10.0 mi Calm Calm - N/A   Clear
2:45 AM 57.2 °F 57.2 °F 100% 29.87 in 7.0 mi Calm Calm - N/A   Clear
3:05 AM 55.4 °F 53.6 °F 94% 29.88 in 10.0 mi Calm Calm - N/A   Clear
3:25 AM 55.4 °F 53.6 °F 94% 29.87 in 10.0 mi Calm Calm - N/A   Clear
3:45 AM 55.4 °F 55.4 °F 100% 29.87 in 10.0 mi NW 3.5 mph - N/A   Clear
4:05 AM 57.2 °F 55.4 °F 94% 29.88 in 10.0 mi WNW 4.6 mph - N/A   Clear
4:25 AM 59.0 °F 55.4 °F 88% 29.89 in 10.0 mi NNW 4.6 mph - N/A   Clear
4:45 AM 59.0 °F 55.4 °F 88% 29.89 in 10.0 mi Calm Calm - N/A   Clear
5:05 AM 59.0 °F 53.6 °F 82% 29.89 in 10.0 mi Calm Calm - N/A   Clear
5:25 AM 59.0 °F 55.4 °F 88% 29.90 in 10.0 mi NNW 3.5 mph - N/A   Clear
5:45 AM 59.0 °F 55.4 °F 88% 29.90 in 10.0 mi NNW 3.5 mph - N/A   Clear
6:05 AM 59.0 °F 55.4 °F 88% 29.91 in 10.0 mi NW 3.5 mph - N/A   Clear
6:25 AM 57.2 °F 53.6 °F 88% 29.91 in 10.0 mi Calm Calm - N/A   Clear
6:45 AM 59.0 °F 55.4 °F 88% 29.91 in 10.0 mi NW 3.5 mph - N/A   Clear
7:05 AM 60.8 °F 55.4 °F 82% 29.91 in 10.0 mi NW 4.6 mph - N/A   Clear
7:25 AM 62.6 °F 57.2 °F 82% 29.92 in 10.0 mi Calm Calm - N/A   Clear
7:45 AM 62.6 °F 57.2 °F 82% 29.92 in 10.0 mi NNW 6.9 mph - N/A   Clear
8:05 AM 64.4 °F 57.2 °F 77% 29.93 in 10.0 mi NNW 6.9 mph - N/A   Clear
8:25 AM 66.2 °F 57.2 °F 73% 29.93 in 10.0 mi NNW 9.2 mph - N/A   Clear
8:45 AM 68.0 °F 59.0 °F 73% 29.94 in 10.0 mi NNW 9.2 mph - N/A   Clear
9:05 AM 68.0 °F 57.2 °F 68% 29.94 in 10.0 mi NNW 9.2 mph 18.4 mph N/A   Clear
9:25 AM 69.8 °F 57.2 °F 64% 29.93 in 10.0 mi North 3.5 mph - N/A   Clear
9:45 AM 69.8 °F 57.2 °F 64% 29.94 in 10.0 mi Calm Calm - N/A   Clear
10:05 AM 71.6 °F 57.2 °F 60% 29.94 in 10.0 mi North 4.6 mph - N/A   Clear
10:25 AM 71.6 °F 55.4 °F 57% 29.94 in 10.0 mi NNW 8.1 mph - N/A   Clear
10:45 AM 71.6 °F 57.2 °F 60% 29.95 in 10.0 mi NNE 8.1 mph - N/A   Clear
11:05 AM 71.6 °F 55.4 °F 57% 29.94 in 10.0 mi North 5.8 mph - N/A   Clear
11:25 AM 73.4 °F 55.4 °F 53% 29.95 in 10.0 mi NNW 8.1 mph - N/A   Clear
11:45 AM 73.4 °F 55.4 °F 53% 29.96 in 10.0 mi North 9.2 mph - N/A   Clear
12:05 PM 73.4 °F 53.6 °F 50% 29.96 in 10.0 mi NW 6.9 mph - N/A   Clear
12:25 PM 73.4 °F 55.4 °F 53% 29.96 in 10.0 mi North 8.1 mph - N/A   Clear
12:45 PM 75.2 °F 53.6 °F 47% 29.96 in 10.0 mi North 9.2 mph 17.3 mph N/A   Clear
1:05 PM 73.4 °F 53.6 °F 50% 29.96 in 10.0 mi North 8.1 mph - N/A   Clear
1:25 PM 75.2 °F 53.6 °F 47% 29.96 in 10.0 mi North 8.1 mph - N/A   Clear
1:45 PM 75.2 °F 53.6 °F 47% 29.96 in 10.0 mi North 9.2 mph - N/A   Clear
2:05 PM 73.4 °F 51.8 °F 47% 29.97 in 10.0 mi NNW 10.4 mph - N/A   Clear
2:25 PM 75.2 °F 51.8 °F 44% 29.97 in 10.0 mi North 9.2 mph - N/A   Clear
2:45 PM 77.0 °F 53.6 °F 44% 29.97 in 10.0 mi North 10.4 mph - N/A   Clear
3:05 PM 73.4 °F 51.8 °F 47% 29.97 in 10.0 mi NNW 10.4 mph - N/A   Mostly Cloudy
3:25 PM 73.4 °F 53.6 °F 50% 29.97 in 10.0 mi NNW 4.6 mph - N/A   Mostly Cloudy
3:45 PM 73.4 °F 53.6 °F 50% 29.97 in 10.0 mi NNW 4.6 mph - N/A   Mostly Cloudy
4:05 PM 75.2 °F 51.8 °F 44% 29.97 in 10.0 mi NNW 6.9 mph - N/A   Mostly Cloudy
4:25 PM 73.4 °F 53.6 °F 50% 29.97 in 10.0 mi NW 8.1 mph - N/A   Scattered Clouds
4:45 PM 73.4 °F 53.6 °F 50% 29.98 in 10.0 mi NW 6.9 mph - N/A   Clear
5:05 PM 73.4 °F 51.8 °F 47% 29.97 in 10.0 mi NW 5.8 mph - N/A   Clear
5:25 PM 73.4 °F 51.8 °F 47% 29.97 in 10.0 mi NW 8.1 mph - N/A   Clear
5:45 PM 75.2 °F 51.8 °F 44% 29.98 in 10.0 mi NW 9.2 mph - N/A   Clear
6:05 PM 75.2 °F 50.0 °F 41% 29.97 in 10.0 mi WNW 6.9 mph - N/A   Clear
6:25 PM 75.2 °F 51.8 °F 44% 29.98 in 10.0 mi NW 6.9 mph - N/A   Clear
6:45 PM 73.4 °F 48.2 °F 41% 29.99 in 10.0 mi NNW 6.9 mph - N/A   Clear
7:05 PM 73.4 °F 50.0 °F 44% 29.99 in 10.0 mi NNW 4.6 mph - N/A   Clear
7:25 PM 73.4 °F 50.0 °F 44% 29.99 in 10.0 mi NW 5.8 mph - N/A   Clear
7:45 PM 71.6 °F 51.8 °F 50% 29.99 in 10.0 mi NNW 3.5 mph - N/A   Clear
8:05 PM 69.8 °F 51.8 °F 53% 30.00 in 10.0 mi NW 4.6 mph - N/A   Clear
8:25 PM 68.0 °F 51.8 °F 56% 30.01 in 10.0 mi NW 3.5 mph - N/A   Clear
8:45 PM 68.0 °F 51.8 °F 56% 30.01 in 10.0 mi NW 3.5 mph - N/A   Clear
9:05 PM 66.2 °F 51.8 °F 60% 30.01 in 10.0 mi Calm Calm - N/A   Clear
9:25 PM 64.4 °F 53.6 °F 68% 30.02 in 10.0 mi Calm Calm - N/A   Clear
9:45 PM 60.8 °F 51.8 °F 72% 30.03 in 10.0 mi Calm Calm - N/A   Clear
10:05 PM 60.8 °F 53.6 °F 77% 30.04 in 10.0 mi Calm Calm - N/A   Clear
10:25 PM 57.2 °F 53.6 °F 88% 30.04 in 10.0 mi Calm Calm - N/A   Clear
10:45 PM 59.0 °F 53.6 °F 82% 30.04 in 10.0 mi Calm Calm - N/A   Clear
11:05 PM 57.2 °F 51.8 °F 82% 30.05 in 10.0 mi Calm Calm - N/A   Clear
11:25 PM 57.2 °F 53.6 °F 88% 30.05 in 10.0 mi Calm Calm - N/A   Clear
11:45 PM 55.4 °F 51.8 °F 88% 30.05 in 10.0 mi Calm Calm - N/A   Clear